Location: Clairmont
(55.2667°N, 118.8000°W)
Time: 09:32:28
(UTC+00:00)

N. Korean satellite - Pass Details

Date: 04 November 2020
Orbit: 453 x 503 km, 97.2° (Epoch: 03 December)

Event Time Altitude Azimuth Distance (km) Brightness Sun altitude
Rises 12:50:23 0° 23° (NNE) 2,483 10.5 -19.6°
Reaches altitude 10° 12:52:42 10° 38° (NE) 1,603 9.7 -19.3°
Maximum altitude 12:55:33 24° 94° (E) 992 9.0 -18.9°
Drops below altitude 10° 12:58:24 10° 150° (SSE) 1,598 9.6 -18.5°
Sets 13:00:42 0° 165° (SSE) 2,472 10.4 -18.2°
